Weather reports worldwide

Advertisment
Benson, United Kingdom (3658): temperature & dewpoint: 11.10.2017 15:00:00 - 17.10.2017 15:00:00 (BST)Benson, United Kingdom (3658): temperature -20cm & temperature -100cm: 11.10.2017 15:00:00 - 17.10.2017 15:00:00 (BST)Benson, United Kingdom (3658): wind speed & gusts: 11.10.2017 15:00:00 - 17.10.2017 15:00:00 (BST)Benson, United Kingdom (3658): wind direction: 11.10.2017 15:00:00 - 17.10.2017 15:00:00 (BST)Benson, United Kingdom (3658): reduced air pressure: 11.10.2017 15:00:00 - 17.10.2017 15:00:00 (BST)Benson, United Kingdom (3658): visibility: 11.10.2017 15:00:00 - 17.10.2017 15:00:00 (BST)Benson, United Kingdom (3658): precipitation: 11.10.2017 15:00:00 - 17.10.2017 15:00:00 (BST)
Date & Time tt [°C] td [°C] tt -20cm [°C] tt -100cm [°C] ff [km/h] ff [kn] fx [km/h] fx [kn] dd ppp [hPa] vv [km] rr [mm]
17.10.2017 15:00:00 13,2 8,3 - - 13 7 - - SSW 1018,5 10 0,0
17.10.2017 14:00:00 13,4 8,2 - - 15 8 - - SSW 1019,2 10 0,0
17.10.2017 13:00:00 13,6 7,7 - - 21 11 - - S 1019,9 10 0,0
17.10.2017 12:00:00 13,2 7,4 - - 15 8 - - SSW 1019,9 10 0,0
17.10.2017 11:00:00 12,9 7,5 - - 15 8 - - SW 1020,1 10 0,0
17.10.2017 10:00:00 11,8 7,5 13,7 14,0 13 7 - - SSW 1020,1 10 0,0
17.10.2017 09:00:00 10,4 6,7 - - 16 9 - - SSW 1019,9 10 0,0
17.10.2017 08:00:00 9,5 6,6 - - 16 9 - - S 1019,4 10 0,0
17.10.2017 07:00:00 10,2 6,5 - - 18 10 - - SSW 1018,7 10 0,0
17.10.2017 06:00:00 10,5 6,7 - - 22 12 - - SSW 1018,4 10 0,0
17.10.2017 05:00:00 11,0 6,8 - - 21 11 - - S 1018,5 10 0,0
17.10.2017 04:00:00 11,0 7,0 - - 22 12 - - SSW 1018,2 10 0,0
17.10.2017 03:00:00 11,5 6,5 - - 24 13 48 26 SSW 1018,2 10 0,0
17.10.2017 02:00:00 12,0 6,3 - - 31 17 52 28 SSW 1018,0 10 0,0
17.10.2017 01:00:00 12,3 7,0 - - 29 16 - - SSW 1018,0 10 0,0
17.10.2017 00:00:00 12,7 6,4 - - 31 17 50 27 SSW 1017,6 10 0,0
16.10.2017 23:00:00 13,2 6,5 - - 31 17 48 26 SSW 1017,2 10 0,0
16.10.2017 22:00:00 13,6 7,1 - - 28 15 46 25 SSW 1016,6 10 0,0
16.10.2017 21:00:00 14,0 7,8 - - 26 14 55 30 SSW 1016,1 10 0,0
16.10.2017 20:00:00 14,4 7,1 - - 28 15 61 33 SSW 1015,8 10 0,0
16.10.2017 19:00:00 14,9 6,8 - - 34 18 54 29 SSW 1015,3 10 -
16.10.2017 18:00:00 15,9 7,8 - - 35 19 67 36 SSW 1014,7 10 0,0
16.10.2017 17:00:00 17,3 8,2 - - 31 17 48 26 SSW 1014,2 10 0,0
16.10.2017 16:00:00 17,1 10,3 - - 28 15 54 29 S 1014,0 10 0,0
16.10.2017 15:00:00 17,7 11,3 - - 31 17 59 32 S 1013,7 10 0,0
16.10.2017 14:00:00 18,8 13,6 - - 29 16 61 33 S 1013,1 10 0,0
16.10.2017 13:00:00 19,9 14,6 - - 39 21 57 31 S 1012,9 10 0,0
16.10.2017 12:00:00 20,6 14,4 - - 37 20 59 32 S 1012,9 10 0,0
16.10.2017 11:00:00 20,5 14,9 - - 35 19 50 27 SSE 1013,0 10 0,0
16.10.2017 10:00:00 17,9 15,0 13,9 14,0 28 15 - - SSE 1013,5 10 0,0
16.10.2017 09:00:00 17,4 15,0 - - 24 13 - - SE 1013,3 10 0,0
16.10.2017 08:00:00 16,9 14,4 - - 24 13 - - SE 1013,6 10 0,0
16.10.2017 07:00:00 16,1 14,3 - - 13 7 - - SSE 1014,4 10 0,0
16.10.2017 06:00:00 15,4 14,5 - - 8 4 - - SSW 1015,4 7 0,0
16.10.2017 05:00:00 15,3 14,5 - - 9 5 - - SSE 1015,2 7 0,0
16.10.2017 04:00:00 14,3 13,8 - - 8 4 - - SE 1015,6 4,8 0,0
16.10.2017 03:00:00 15,5 14,6 - - 13 7 - - S 1015,8 5 0,0
16.10.2017 02:00:00 15,8 14,8 - - 15 8 - - S 1015,8 5 0,0
16.10.2017 01:00:00 15,1 14,2 - - 8 4 - - S 1016,2 5 0,0
16.10.2017 00:00:00 12,4 12,1 - - 4 2 - - S 1016,4 4,1 0,0
15.10.2017 23:00:00 12,5 11,7 - - 8 4 - - S 1016,5 4,5 0,0
15.10.2017 22:00:00 13,6 12,4 - - 16 9 - - S 1016,4 6 0,0
15.10.2017 21:00:00 12,6 11,8 - - 9 5 - - SSE 1016,8 5 0,0
15.10.2017 20:00:00 14,8 12,8 - - 15 8 - - SSE 1016,9 8 0,0
15.10.2017 19:00:00 14,7 12,4 - - 18 10 - - S 1016,6 9 0,0
15.10.2017 18:00:00 16,1 12,8 - - 18 10 - - S 1016,3 10 0,0
15.10.2017 17:00:00 17,5 12,5 - - 18 10 - - S 1016,1 10 0,0
15.10.2017 16:00:00 18,6 12,3 - - 18 10 - - S 1016,3 10 0,0
15.10.2017 15:00:00 18,1 11,9 - - 26 14 - - SSW 1016,8 10 0,0
15.10.2017 14:00:00 17,4 12,2 - - 28 15 - - S 1016,9 10 0,0
15.10.2017 13:00:00 17,4 12,7 - - 24 13 - - S 1017,1 10 0,0
15.10.2017 12:00:00 17,0 13,5 - - 18 10 - - S 1017,4 10 0,0
15.10.2017 11:00:00 16,3 13,3 - - 18 10 - - SSW 1017,5 10 0,0
15.10.2017 10:00:00 15,5 13,9 13,9 14,0 15 8 - - SW 1017,8 8 0,0
15.10.2017 09:00:00 14,9 13,8 - - 18 10 - - S 1017,5 6 0,0
15.10.2017 08:00:00 14,0 13,1 - - 13 7 - - S 1017,4 7 0,0
15.10.2017 07:00:00 11,2 11,2 - - 9 5 - - SSE 1017,5 2,1 0,0
15.10.2017 06:00:00 13,1 12,6 - - 8 4 - - SSW 1018,0 3,7 0,0
15.10.2017 05:00:00 13,3 12,9 - - 13 7 - - S 1018,3 2,8 0,0
15.10.2017 04:00:00 13,7 13,2 - - 21 11 - - S 1018,9 3,8 0,0
15.10.2017 03:00:00 13,6 13,1 - - 15 8 - - S 1019,8 4,7 0,0
15.10.2017 02:00:00 13,1 12,7 - - 13 7 - - S 1020,5 6 0,0
15.10.2017 01:00:00 11,7 11,3 - - 5 3 - - SSE 1021,0 8 0,0
15.10.2017 00:00:00 12,1 11,5 - - 9 5 - - SSE 1021,3 9 0,0
14.10.2017 23:00:00 13,7 13,2 - - 15 8 - - SE 1021,9 9 0,0
14.10.2017 22:00:00 9,5 9,2 - - 2 1 - - E 1022,4 2,1 0,0
14.10.2017 21:00:00 12,9 11,9 - - 8 4 - - S 1022,6 10 0,0
14.10.2017 20:00:00 13,5 11,7 - - 9 5 - - SSE 1022,8 10 0,0
14.10.2017 19:00:00 16,3 12,8 - - 9 5 - - S 1023,0 10 0,0
14.10.2017 18:00:00 17,3 11,9 - - 13 7 - - SSW 1023,4 10 0,0
14.10.2017 17:00:00 18,2 12,2 - - 15 8 - - SSW 1023,5 10 0,0
14.10.2017 16:00:00 18,6 14,0 - - 15 8 - - SW 1023,7 10 0,0
14.10.2017 15:00:00 19,2 13,4 - - 18 10 - - SSW 1023,6 10 0,0
14.10.2017 14:00:00 18,4 14,4 - - 16 9 - - SSW 1023,8 10 0,0
14.10.2017 13:00:00 18,3 14,5 - - 15 8 - - SSW 1024,2 10 0,0
14.10.2017 12:00:00 17,5 14,6 - - 15 8 - - S 1024,4 10 0,0
14.10.2017 11:00:00 16,9 14,6 - - 13 7 - - S 1024,3 10 0,0
14.10.2017 10:00:00 16,5 14,4 13,7 14,0 16 9 - - SSW 1024,1 10 0,0
14.10.2017 09:00:00 16,0 14,4 - - 18 10 - - SSW 1023,7 10 0,0
14.10.2017 08:00:00 15,5 13,9 - - 16 9 - - S 1023,3 10 0,0
14.10.2017 07:00:00 15,2 13,6 - - 15 8 - - S 1023,0 10 0,0
14.10.2017 06:00:00 15,8 13,7 - - 18 10 - - SSW 1023,0 10 0,0
14.10.2017 05:00:00 15,8 13,9 - - 18 10 - - SSW 1022,8 10 0,0
14.10.2017 04:00:00 15,9 14,3 - - 21 11 - - SSW 1022,8 10 0,0
14.10.2017 03:00:00 16,0 14,4 - - 22 12 - - SSW 1022,9 10 0,0
14.10.2017 02:00:00 16,1 14,1 - - 26 14 - - SSW 1022,8 10 0,0
14.10.2017 01:00:00 15,7 13,9 - - 16 9 - - S 1022,9 10 0,0
14.10.2017 00:00:00 16,4 13,9 - - 18 10 - - SSW 1022,8 10 0,0
13.10.2017 23:00:00 16,4 13,9 - - 18 10 - - SSW 1022,6 10 0,0
13.10.2017 22:00:00 16,4 14,0 - - 16 9 - - SSW 1022,6 10 0,0
13.10.2017 21:00:00 16,7 13,9 - - 21 11 - - SSW 1022,6 10 0,0
13.10.2017 20:00:00 16,9 14,1 - - 21 11 - - SSW 1022,5 10 0,0
13.10.2017 19:00:00 17,0 14,1 - - 21 11 - - SSW 1022,2 10 0,0
13.10.2017 18:00:00 17,9 13,9 - - 26 14 - - SSW 1021,5 10 0,0
13.10.2017 17:00:00 18,5 13,6 - - 26 14 - - SSW 1021,5 10 0,0
13.10.2017 16:00:00 18,6 14,1 - - 24 13 - - SSW 1021,4 10 0,0
13.10.2017 15:00:00 18,7 14,1 - - 26 14 - - SSW 1021,3 10 0,0
13.10.2017 14:00:00 18,1 14,3 - - 24 13 - - SSW 1021,4 10 0,0
13.10.2017 13:00:00 18,1 14,6 - - 28 15 - - SSW 1021,6 10 0,0
13.10.2017 12:00:00 17,4 14,5 - - 24 13 - - SSW 1021,7 10 0,0
13.10.2017 11:00:00 17,4 14,8 - - 26 14 - - SSW 1021,3 10 0,0
13.10.2017 10:00:00 16,7 14,6 13,4 14,0 22 12 - - SSW 1021,0 10 0,0
13.10.2017 09:00:00 16,3 14,6 - - 22 12 - - S 1020,8 10 0,0
13.10.2017 08:00:00 15,3 14,7 - - 21 11 - - S 1020,4 10 0,0
13.10.2017 07:00:00 15,0 14,2 - - 21 11 - - S 1020,3 10 0,0
13.10.2017 06:00:00 14,7 13,6 - - 21 11 - - S 1020,1 10 0,0
13.10.2017 05:00:00 14,4 13,1 - - 18 10 - - S 1020,3 10 0,0
13.10.2017 04:00:00 13,9 12,5 - - 22 12 - - S 1020,4 10 0,0
13.10.2017 03:00:00 13,4 12,0 - - 18 10 - - S 1020,6 10 0,0
13.10.2017 02:00:00 12,1 11,0 - - 16 9 - - S 1020,9 10 0,0
13.10.2017 01:00:00 11,6 10,5 - - 15 8 - - S 1020,9 10 0,0
13.10.2017 00:00:00 10,7 9,8 - - 15 8 - - S 1021,0 10 0,0
12.10.2017 23:00:00 9,4 8,5 - - 15 8 - - S 1021,3 10 0,0
12.10.2017 22:00:00 10,1 8,4 - - 9 5 - - S 1021,6 10 0,0
12.10.2017 21:00:00 10,7 8,4 - - 13 7 - - S 1021,2 10 0,0
12.10.2017 20:00:00 10,3 7,7 - - 15 8 - - S 1021,1 10 0,0
12.10.2017 19:00:00 11,6 7,5 - - 13 7 - - S 1021,0 10 0,0
12.10.2017 18:00:00 14,5 7,5 - - 15 8 - - SSW 1020,8 10 0,0
12.10.2017 17:00:00 16,1 6,7 - - 22 12 - - SW 1020,7 10 0,0
12.10.2017 16:00:00 16,8 8,2 - - 16 9 - - SW 1020,5 10 0,0
12.10.2017 15:00:00 16,6 8,2 - - 24 13 - - SW 1020,8 10 0,0
12.10.2017 14:00:00 15,6 8,3 - - 18 10 - - WSW 1021,0 10 0,0
12.10.2017 13:00:00 16,2 10,0 - - 18 10 - - SW 1021,2 10 0,0
12.10.2017 12:00:00 14,2 9,8 - - 15 8 - - SW 1021,2 10 0,0
12.10.2017 11:00:00 14,0 10,8 - - 16 9 - - SW 1020,9 10 0,0
12.10.2017 10:00:00 12,4 10,0 13,7 14,0 15 8 - - SW 1020,3 10 0,0
12.10.2017 09:00:00 10,9 9,3 - - 13 7 - - SSW 1020,0 10 0,0
12.10.2017 08:00:00 9,2 8,3 - - 13 7 - - S 1019,4 10 0,0
12.10.2017 07:00:00 9,2 8,3 - - 13 7 - - S 1018,5 10 0,0
12.10.2017 06:00:00 9,5 8,5 - - 13 7 - - SSW 1017,7 10 0,0
12.10.2017 05:00:00 9,0 8,1 - - 13 7 - - SSW 1016,9 10 0,0
12.10.2017 04:00:00 8,7 8,0 - - 11 6 - - S 1016,4 10 0,0
12.10.2017 03:00:00 7,2 6,7 - - 8 4 - - S 1015,8 10 0,0
12.10.2017 02:00:00 9,5 8,4 - - 13 7 - - SSW 1015,2 10 0,0
12.10.2017 01:00:00 10,8 8,9 - - 16 9 - - SW 1013,9 10 0,0
12.10.2017 00:00:00 11,0 8,7 - - 13 7 - - SW 1013,6 10 0,0
11.10.2017 23:00:00 11,7 8,9 - - 15 8 - - WSW 1012,9 10 0,0
11.10.2017 22:00:00 12,2 9,5 - - 16 9 - - SW 1012,2 10 0,0
11.10.2017 21:00:00 12,6 9,9 - - 16 9 - - SW 1011,0 10 0,0
11.10.2017 20:00:00 13,5 10,3 - - 18 10 46 25 SW 1009,8 10 0,8
11.10.2017 19:00:00 14,8 13,8 - - 28 15 - - SW 1008,2 10 0,0
11.10.2017 18:00:00 15,0 13,4 - - 28 15 48 26 SSW 1007,7 10 0,0
11.10.2017 17:00:00 16,0 12,0 - - 31 17 50 27 SSW 1007,7 10 0,0
11.10.2017 16:00:00 16,3 11,4 - - 29 16 54 29 SSW 1008,0 10 0,0
11.10.2017 15:00:00 16,8 11,1 - - 37 20 57 31 SSW 1008,4 10 0,0

tt = temperature
td = dewpoint
tt -20cm = temperature -20cm
tt -100cm = temperature -100cm
ff = wind speed
fx = gusts
dd = wind direction
ppp = reduced air pressure
vv = visibility
rr = precipitation

Next stations